• In Uzbekistan
  • List of Countries
  • For 7 days
  • Water Temperature
  • Satellite Maps
  • Weather Map
  • Weather Widgets
  • user-avatar
    Login

    Hourly Weather Kinshasa

    Today, 22 January, Monday

    Time Temperature Precipitation Wind Pressure Humidity
    00:00 +25°C° 0 mm 1 mps 707 mmHg 29%
    01:00 +23°C° 0 mm 0 mps 707 mmHg 33%
    02:00 +24°C° 0 mm 1 mps 707 mmHg 34%
    03:00 +23°C° 0 mm 1 mps 707 mmHg 34%
    04:00 +23°C° 0 mm 1 mps 706 mmHg 34%
    05:00 +23°C° 0 mm 1 mps 707 mmHg 34%
    06:00 +21°C° 0 mm 0 mps 707 mmHg 34%
    07:00 +21°C° 0 mm 0 mps 707 mmHg 33%
    08:00 +27°C° 0 mm 1 mps 708 mmHg 27%
    09:00 +31°C° 0 mm 1 mps 708 mmHg 20%
    10:00 +36°C° 0 mm 2 mps 708 mmHg 13%
    11:00 +37°C° 0 mm 2 mps 708 mmHg 12%
    12:00 +38°C° 0 mm 2 mps 707 mmHg 11%
    13:00 +40°C° 0 mm 2 mps 706 mmHg 11%
    14:00 +40°C° 0 mm 2 mps 706 mmHg 11%
    15:00 +40°C° 0 mm 2 mps 705 mmHg 11%
    16:00 +40°C° 0 mm 2 mps 704 mmHg 10%
    17:00 +36°C° 0 mm 1 mps 705 mmHg 13%
    18:00 +33°C° 0 mm 1 mps 705 mmHg 15%
    19:00 +28°C° 0 mm 0 mps 705 mmHg 17%
    20:00 +30°C° 0 mm 1 mps 705 mmHg 17%
    21:00 +29°C° 0 mm 1 mps 706 mmHg 18%
    22:00 +28°C° 0 mm 1 mps 706 mmHg 18%
    23:00 +27°C° 0 mm 1 mps 706 mmHg 18%

    Tomorrow, 23 January, Tuesday

    Time Temperature Precipitation Wind Pressure Humidity
    00:00 +26°C° 0 mm 1 mps 706 mmHg 19%
    01:00 +25°C° 0 mm 1 mps 706 mmHg 19%
    02:00 +24°C° 0 mm 1 mps 706 mmHg 20%
    03:00 +24°C° 0 mm 1 mps 706 mmHg 21%
    04:00 +21°C° 0 mm 0 mps 705 mmHg 22%
    05:00 +21°C° 0 mm 0 mps 706 mmHg 23%
    06:00 +21°C° 0 mm 0 mps 706 mmHg 24%
    07:00 +21°C° 0 mm 0 mps 706 mmHg 25%
    08:00 +25°C° 0 mm 0 mps 707 mmHg 20%
    09:00 +31°C° 0 mm 1 mps 708 mmHg 16%
    10:00 +35°C° 0 mm 1 mps 708 mmHg 11%
    11:00 +37°C° 0 mm 1 mps 707 mmHg 10%
    12:00 +40°C° 0 mm 1 mps 707 mmHg 10%
    13:00 +42°C° 0 mm 1 mps 706 mmHg 9%
    14:00 +41°C° 0 mm 1 mps 705 mmHg 9%
    15:00 +41°C° 0 mm 1 mps 704 mmHg 10%
    16:00 +40°C° 0 mm 1 mps 704 mmHg 10%
    17:00 +36°C° 0 mm 1 mps 704 mmHg 12%
    18:00 +34°C° 0 mm 1 mps 704 mmHg 14%
    19:00 +31°C° 0 mm 1 mps 704 mmHg 17%
    20:00 +30°C° 0 mm 1 mps 704 mmHg 18%
    21:00 +29°C° 0 mm 1 mps 705 mmHg 19%
    22:00 +28°C° 0 mm 1 mps 706 mmHg 20%
    23:00 +27°C° 0 mm 1 mps 706 mmHg 21%

    Day after tomorrow, 24 January, Wednesday

    Time Temperature Precipitation Wind Pressure Humidity
    00:00 +27°C° 0 mm 1 mps 706 mmHg 21%
    01:00 +26°C° 0 mm 1 mps 706 mmHg 22%
    02:00 +25°C° 0 mm 1 mps 706 mmHg 26%
    03:00 +24°C° 0 mm 1 mps 705 mmHg 30%
    04:00 +23°C° 0 mm 1 mps 705 mmHg 34%
    05:00 +23°C° 0 mm 1 mps 706 mmHg 39%
    06:00 +23°C° 0 mm 1 mps 706 mmHg 43%
    07:00 +23°C° 0 mm 1 mps 707 mmHg 48%
    08:00 +26°C° 0 mm 1 mps 707 mmHg 39%
    09:00 +30°C° 0 mm 1 mps 708 mmHg 31%
    10:00 +34°C° 0 mm 1 mps 709 mmHg 22%
    11:00 +35°C° 0 mm 1 mps 708 mmHg 18%
    12:00 +37°C° 0 mm 2 mps 707 mmHg 14%
    13:00 +38°C° 0 mm 2 mps 706 mmHg 11%
    14:00 +38°C° 0 mm 2 mps 706 mmHg 10%
    15:00 +38°C° 0 mm 2 mps 705 mmHg 10%
    16:00 +39°C° 0 mm 2 mps 704 mmHg 10%
    17:00 +35°C° 0 mm 1 mps 704 mmHg 12%
    18:00 +32°C° 0 mm 1 mps 704 mmHg 14%
    19:00 +29°C° 0 mm 1 mps 704 mmHg 16%
    20:00 +28°C° 0 mm 1 mps 705 mmHg 18%
    21:00 +27°C° 0 mm 1 mps 705 mmHg 19%
    22:00 +27°C° 0 mm 1 mps 706 mmHg 20%
    23:00 +26°C° 0 mm 1 mps 706 mmHg 23%

    25 January, Thursday

    Time Temperature Precipitation Wind Pressure Humidity
    00:00 +25°C° 0 mm 1 mps 705 mmHg 26%
    01:00 +24°C° 0 mm 1 mps 705 mmHg 29%
    02:00 +24°C° 0 mm 1 mps 705 mmHg 34%
    03:00 +23°C° 0 mm 1 mps 705 mmHg 39%
    04:00 +23°C° 0 mm 1 mps 705 mmHg 45%
    05:00 +23°C° 0 mm 1 mps 705 mmHg 49%
    06:00 +23°C° 0 mm 1 mps 706 mmHg 54%
    07:00 +23°C° 0 mm 1 mps 707 mmHg 59%
    08:00 +26°C° 0 mm 1 mps 707 mmHg 52%
    09:00 +29°C° 0 mm 1 mps 708 mmHg 45%
    10:00 +33°C° 0 mm 1 mps 708 mmHg 38%
    11:00 +35°C° 0 mm 1 mps 708 mmHg 31%
    12:00 +39°C° 0 mm 1 mps 707 mmHg 25%
    13:00 +39°C° 0 mm 0 mps 706 mmHg 18%
    14:00 +40°C° 0 mm 1 mps 706 mmHg 18%
    15:00 +39°C° 0 mm 1 mps 705 mmHg 18%
    16:00 +37°C° 0 mm 1 mps 704 mmHg 18%
    17:00 +35°C° 0 mm 1 mps 704 mmHg 21%
    18:00 +33°C° 0 mm 1 mps 704 mmHg 24%
    19:00 +30°C° 0 mm 1 mps 705 mmHg 27%
    20:00 +29°C° 0 mm 1 mps 705 mmHg 31%
    21:00 +26°C° 0 mm 0 mps 705 mmHg 35%
    22:00 +25°C° 0 mm 0 mps 706 mmHg 38%
    23:00 +24°C° 0 mm 0 mps 705 mmHg 39%

    26 January, Friday

    Time Temperature Precipitation Wind Pressure Humidity
    00:00 +24°C° 0 mm 0 mps 705 mmHg 40%
    01:00 +23°C° 0 mm 0 mps 705 mmHg 41%
    02:00 +23°C° 0 mm 0 mps 705 mmHg 41%
    03:00 +22°C° 0 mm 0 mps 705 mmHg 41%
    04:00 +22°C° 0 mm 0 mps 705 mmHg 41%
    05:00 +22°C° 0 mm 0 mps 705 mmHg 43%
    06:00 +22°C° 0 mm 0 mps 706 mmHg 44%
    07:00 +22°C° 0 mm 0 mps 707 mmHg 46%
    08:00 +26°C° 0 mm 0 mps 707 mmHg 39%
    09:00 +29°C° 0 mm 0 mps 708 mmHg 33%
    10:00 +35°C° 0 mm 1 mps 709 mmHg 26%
    11:00 +36°C° 0 mm 1 mps 708 mmHg 23%
    12:00 +37°C° 0 mm 1 mps 707 mmHg 19%
    13:00 +40°C° 0 mm 1 mps 706 mmHg 15%
    14:00 +39°C° 0 mm 1 mps 705 mmHg 14%
    15:00 +39°C° 0 mm 1 mps 704 mmHg 13%
    16:00 +39°C° 0 mm 1 mps 704 mmHg 12%
    17:00 +35°C° 0 mm 1 mps 704 mmHg 15%
    18:00 +33°C° 0 mm 1 mps 704 mmHg 17%
    19:00 +30°C° 0 mm 1 mps 704 mmHg 20%
    20:00 +27°C° 0 mm 0 mps 705 mmHg 25%
    21:00 +26°C° 0 mm 0 mps 705 mmHg 31%
    22:00 +24°C° 0 mm 0 mps 706 mmHg 36%
    23:00 +24°C° 0 mm 0 mps 705 mmHg 41%

    27 January, Saturday

    Time Temperature Precipitation Wind Pressure Humidity
    00:00 +25°C° 0 mm 1 mps 705 mmHg 46%
    01:00 +25°C° 0 mm 1 mps 705 mmHg 51%
    02:00 +24°C° 0 mm 1 mps 705 mmHg 55%
    03:00 +24°C° 0 mm 1 mps 705 mmHg 60%
    04:00 +24°C° 0 mm 1 mps 705 mmHg 65%
    05:00 +24°C° 0 mm 1 mps 705 mmHg 65%
    06:00 +24°C° 0 mm 1 mps 706 mmHg 65%
    07:00 +24°C° 0 mm 1 mps 707 mmHg 66%
    08:00 +27°C° 0 mm 1 mps 707 mmHg 55%
    09:00 +30°C° 0 mm 1 mps 707 mmHg 45%
    10:00 +34°C° 0 mm 2 mps 708 mmHg 35%
    11:00 +36°C° 0 mm 2 mps 707 mmHg 28%
    12:00 +38°C° 0 mm 2 mps 706 mmHg 21%
    13:00 +39°C° 0 mm 2 mps 705 mmHg 15%
    14:00 +39°C° 0 mm 2 mps 705 mmHg 14%
    15:00 +39°C° 0 mm 2 mps 704 mmHg 13%
    16:00 +39°C° 0 mm 1 mps 703 mmHg 12%
    17:00 +36°C° 0 mm 1 mps 704 mmHg 14%
    18:00 +33°C° 0 mm 1 mps 704 mmHg 16%
    19:00 +30°C° 0 mm 1 mps 704 mmHg 18%
    20:00 +29°C° 0 mm 1 mps 704 mmHg 21%
    21:00 +28°C° 0 mm 1 mps 705 mmHg 23%
    22:00 +27°C° 0 mm 1 mps 705 mmHg 25%
    23:00 +26°C° 0 mm 1 mps 705 mmHg 29%
    Show more